Voltar ao catálogo

ARIANE 5 R/B

AtivoGTO
NORAD 32021·ROCKET BODY·🇫🇷 France

Lançado Aug 14, 2007 de Guiana Space Centre

Loading…

TLE

AtualizadoSource: Space-Track

Época: Sep 14, 2026, 20:12 UTC

1 32021U 07036D   26257.84175194  .00000203  00000-0  33159-3 0  9994
2 32021   2.5222  16.6057 7107066  55.5751 352.3009  2.47561423164921

Acompanhe ARIANE 5 R/B em tempo real com AllMySat

Download on the App Store